sat.trackr.live / text

‹ back to catalog

STARLINK-33597

NORAD 62763 · 2025-015F

PAYLOAD ACTIVE UNKNOWN

§ Identity

Operator
Country
US
Launch date
2025-01-21
Launch site
AFWTR
Launch vehicle
Mass (kg)
RCS (m²)

Purposes: comms

External: N2YO · Heavens-Above · Gunter

§ Orbital elements

Epoch: 2026-09-21T20:45:08.928288Z

Period
94.01 min
Inclination
53.1583°
Eccentricity
0.0001297
Mean motion
15.31706946 rev/d
Perigee alt
469.8 km
Apogee alt
471.6 km
Semi-major
6,848.9 km
B*
2.3502e-4
RAAN
130.0249°
Arg perigee
101.3640°
Mean anomaly
258.7507°
Rev number
9,453

§ Raw data

STARLINK-335971 62763U 25015F   26264.86468667  .00006936  00000+0  23502-3 0  99962 62763  53.1583 130.0249 0001297 101.3640 258.7507 15.31706946 94531

JSON: /api/v1/satellites/62763 · /tle

For live sub-satellite position, see the globe view (requires WebGL).

§ Visibility from observer

Set your observer location to see the next 7 days of passes ≥ 10°. The values pass through the URL so the page stays shareable.

No JS? Fill the form by hand. The geolocation button needs JavaScript.